Skip Page Navigation
NASA JPL Caltech
NASA Logo - Jet Propulsion Laboratory + View the NASA Portal
+ Center for Near-Earth Object Studies
JPL Home Earth Solar System Stars & Galaxies Technology
JPL Solar System Dynamics
BODIES ORBITS EPHEMERIDES TOOLS PHYSICAL DATA DISCOVERY FAQ SITE MAP
IMPORTANT: The SSD Announcement email list is now available. Major changes are coming in the near future, including possible hostname and/or URL changes. To be notified of such changes, subscribe to this email list.

Please visit this page for more details.


JPL Small-Body Database Browser
Search: [ help ]  
136653 (1995 MU1)
Classification: Main-belt Asteroid          SPK-ID: 2136653
Ephemeris | Orbit Diagram | Orbital Elements | Mission Design | Physical Parameters | Discovery Circumstances | Close-Approach Data ]

[ show orbit diagram ]
Orbital Elements at Epoch 2458600.5 (2019-Apr-27.0) TDB
Reference: JPL 16 (heliocentric ecliptic J2000)
 Element Value Uncertainty (1-sigma)   Units 
e .1460748911657655 4.2261e-08  
a 2.85074572621483 2.112e-08 au
q 2.434323354516728 1.2637e-07 au
i 10.10378913550411 4.5415e-06 deg
node 118.4810452744237 2.6331e-05 deg
peri 262.4530825573126 3.1114e-05 deg
M 219.5575002813452 1.8727e-05 deg
tp 2459286.354827415620
(2021-Mar-12.85482742)
9.5903e-05 TDB
period 1758.069945808765
4.81
1.9537e-05
5.349e-08
d
yr
n .2047700097816012 2.2756e-09 deg/d
Q 3.267168097912933 2.4205e-08 au
  Orbit Determination Parameters
   # obs. used (total)      498  
   data-arc span      8723 days (23.88 yr)  
   first obs. used      1995-06-23  
   last obs. used      2019-05-11  
   planetary ephem.      DE431  
   SB-pert. ephem.      SB431-N16  
   condition code      0  
   norm. resid. RMS      .54333  
   source      ORB  
   producer      Otto Matic  
   solution date      2019-May-30 07:13:09  

Additional Information
 Earth MOID = 1.46119 au 
 Jupiter MOID = 2.28219 au 
 T_jup = 3.267 
[ show covariance matrix ]

Ephemeris | Orbit Diagram | Orbital Elements | Mission Design | Physical Parameters | Discovery Circumstances | Close-Approach Data ]

Physical Parameter Table
Parameter Symbol Value Units Sigma Reference Notes
absolute magnitude H 15.1   n/a MPO436673  

136653 (1995 MU1)          Discovered 1995-Jun-23 by Spacewatch at Kitt Peak
Reference: 20061205/Numbers.arcLast Updated: 2006-12-13

[ show close-approach data ]
Ephemeris | Orbit Diagram | Orbital Elements | Mission Design | Physical Parameters | Discovery Circumstances | Close-Approach Data ]
ABOUT SSD CREDITS/AWARDS PRIVACY/COPYRIGHT GLOSSARY LINKS
FirstGov
(server date/time)  
NASA Home Page
Site Manager:   Ryan S. Park
Webmaster  Alan B. Chamberlin